JSX218 KLAX-MMSL

Flight info

Callsign JSX218
Flight time 2h 16m
Altitude 37000
Route PNDAH2 OTAYY DCT TIJ DCT ALRIN ALRIN1G
Aircraft E145/M-VGDW/C

Departure

Time 2026-04-25 23:16
Airport Los Angeles International Airport (KLAX)

Arrival

Time 2026-04-26 01:33
Airport Cabo San Lucas International Airport (MMSL)
Time Latitude Longitude Altitude Speed Heading
2026-04-25 22:59 33.93377 -118.39487 108 ft 0 kts 89°
2026-04-25 23:12 33.93377 -118.39484 108 ft 2 kts 90°
2026-04-25 23:12 33.93378 -118.39465 108 ft 4 kts 73°
2026-04-25 23:12 33.93404 -118.39434 107 ft 7 kts 41°
2026-04-25 23:12 33.93460 -118.39394 107 ft 11 kts 12°
2026-04-25 23:13 33.93509 -118.39317 105 ft 15 kts 78°
2026-04-25 23:13 33.93525 -118.39156 105 ft 23 kts 83°
2026-04-25 23:13 33.93549 -118.38927 103 ft 29 kts 83°
2026-04-25 23:13 33.93572 -118.38706 102 ft 25 kts 83°
2026-04-25 23:14 33.93591 -118.38502 102 ft 18 kts 82°
2026-04-25 23:14 33.93602 -118.38399 100 ft 2 kts 83°
2026-04-25 23:14 33.93608 -118.38345 99 ft 13 kts 79°
2026-04-25 23:14 33.93715 -118.38303 99 ft 18 kts 317°
2026-04-25 23:15 33.93728 -118.38360 99 ft 0 kts 262°
2026-04-25 23:15 33.93723 -118.38404 100 ft 26 kts 263°
2026-04-25 23:15 33.93668 -118.38939 102 ft 99 kts 262°
2026-04-25 23:16 33.93563 -118.39926 339 ft 124 kts 258°
2026-04-25 23:16 33.93458 -118.40966 829 ft 130 kts 261°
2026-04-25 23:16 33.93355 -118.42077 1362 ft 137 kts 261°
2026-04-25 23:16 33.93233 -118.43269 1866 ft 152 kts 260°
2026-04-25 23:17 33.93063 -118.44666 2183 ft 188 kts 261°
2026-04-25 23:17 33.92628 -118.46331 2280 ft 233 kts 235°
2026-04-25 23:17 33.91572 -118.47890 3048 ft 246 kts 233°
2026-04-25 23:17 33.90469 -118.49477 4066 ft 248 kts 221°
2026-04-25 23:18 33.88968 -118.50486 5008 ft 253 kts 199°
2026-04-25 23:18 33.87221 -118.50861 5956 ft 257 kts 188°
2026-04-25 23:18 33.85462 -118.51042 6882 ft 259 kts 186°
2026-04-25 23:18 33.83684 -118.51174 7775 ft 257 kts 186°
2026-04-25 23:19 33.81880 -118.51296 8544 ft 259 kts 186°
2026-04-25 23:19 33.80087 -118.51413 9322 ft 259 kts 186°
2026-04-25 23:19 33.78296 -118.51529 10121 ft 258 kts 187°
2026-04-25 23:19 33.76478 -118.51647 10696 ft 266 kts 187°
2026-04-25 23:20 33.74593 -118.51770 11129 ft 277 kts 187°
2026-04-25 23:20 33.72616 -118.51897 11610 ft 287 kts 187°
2026-04-25 23:20 33.70567 -118.51615 12044 ft 305 kts 165°
2026-04-25 23:20 33.68708 -118.50200 12503 ft 326 kts 141°
2026-04-25 23:21 33.67472 -118.47855 13067 ft 343 kts 115°
2026-04-25 23:21 33.66728 -118.45114 13567 ft 345 kts 121°
2026-04-25 23:21 33.65621 -118.42547 14087 ft 347 kts 123°
2026-04-25 23:21 33.64507 -118.39949 14668 ft 349 kts 124°
2026-04-25 23:22 33.63388 -118.37350 15234 ft 350 kts 124°
2026-04-25 23:22 33.62265 -118.34743 15729 ft 355 kts 124°
2026-04-25 23:22 33.61127 -118.32102 16257 ft 357 kts 124°
2026-04-25 23:23 33.58808 -118.26732 17207 ft 364 kts 124°
2026-04-25 23:23 33.57646 -118.24040 17747 ft 365 kts 124°
2026-04-25 23:23 33.56471 -118.21323 18301 ft 365 kts 125°
2026-04-25 23:23 33.55306 -118.18632 18842 ft 366 kts 125°
2026-04-25 23:24 33.54124 -118.15901 19427 ft 365 kts 125°
2026-04-25 23:24 33.52954 -118.13188 19971 ft 365 kts 125°
2026-04-25 23:24 33.51793 -118.10489 20547 ft 364 kts 126°
2026-04-25 23:24 33.50634 -118.07797 21048 ft 365 kts 126°
2026-04-25 23:25 33.49475 -118.05107 21629 ft 363 kts 126°
2026-04-25 23:25 33.48313 -118.02415 22106 ft 365 kts 127°
2026-04-25 23:25 33.47115 -117.99741 22600 ft 358 kts 133°
2026-04-25 23:25 33.45489 -117.97611 23071 ft 342 kts 149°
2026-04-25 23:26 33.43722 -117.95734 23660 ft 340 kts 149°
2026-04-25 23:26 33.41949 -117.93846 24245 ft 337 kts 149°
2026-04-25 23:26 33.40203 -117.91991 24728 ft 337 kts 149°
2026-04-25 23:26 33.38444 -117.90123 25219 ft 337 kts 150°
2026-04-25 23:27 33.36693 -117.88265 25759 ft 336 kts 150°
2026-04-25 23:27 33.34942 -117.86409 26261 ft 335 kts 150°
2026-04-25 23:27 33.33217 -117.84580 26790 ft 333 kts 150°
2026-04-25 23:27 33.31480 -117.82741 27195 ft 335 kts 151°
2026-04-25 23:28 33.29728 -117.80885 27727 ft 332 kts 151°
2026-04-25 23:28 33.28000 -117.79057 28180 ft 332 kts 151°
2026-04-25 23:28 33.26263 -117.77220 28652 ft 332 kts 152°
2026-04-25 23:28 33.24532 -117.75391 29136 ft 330 kts 152°
2026-04-25 23:29 33.22813 -117.73576 29560 ft 331 kts 152°
2026-04-25 23:29 33.21099 -117.71764 30022 ft 329 kts 153°
2026-04-25 23:29 33.19394 -117.69966 30404 ft 329 kts 153°
2026-04-25 23:29 33.17675 -117.68153 30790 ft 329 kts 153°
2026-04-25 23:30 33.15944 -117.66353 31241 ft 321 kts 158°
2026-04-25 23:30 33.14204 -117.64715 31583 ft 332 kts 148°
2026-04-25 23:30 33.12580 -117.62697 31898 ft 334 kts 150°
2026-04-25 23:30 33.10902 -117.60751 32207 ft 333 kts 151°
2026-04-25 23:31 33.09221 -117.58848 32624 ft 330 kts 152°
2026-04-25 23:31 33.07579 -117.57006 33056 ft 327 kts 152°
2026-04-25 23:31 33.05893 -117.55131 33308 ft 330 kts 152°
2026-04-25 23:31 33.04232 -117.53282 33606 ft 330 kts 152°
2026-04-25 23:32 33.02565 -117.51427 34026 ft 326 kts 153°
2026-04-25 23:32 33.00903 -117.49585 34254 ft 328 kts 153°
2026-04-25 23:32 32.99218 -117.47717 34491 ft 330 kts 153°
2026-04-25 23:32 32.97543 -117.45859 34767 ft 330 kts 153°
2026-04-25 23:33 32.95872 -117.44007 35001 ft 330 kts 152°
2026-04-25 23:33 32.94193 -117.42148 35239 ft 331 kts 152°
2026-04-25 23:33 32.92497 -117.40269 35511 ft 331 kts 152°
2026-04-25 23:33 32.90818 -117.38412 35780 ft 331 kts 152°
2026-04-25 23:34 32.89124 -117.36540 35984 ft 334 kts 152°
2026-04-25 23:34 32.87420 -117.34656 36322 ft 333 kts 153°
2026-04-25 23:34 32.85719 -117.32776 36664 ft 331 kts 152°
2026-04-25 23:34 32.84023 -117.30904 36928 ft 332 kts 153°
2026-04-25 23:35 32.82311 -117.29020 36956 ft 340 kts 152°
2026-04-25 23:35 32.78800 -117.25148 36954 ft 348 kts 152°
2026-04-25 23:36 32.75206 -117.21190 36962 ft 355 kts 152°
2026-04-25 23:36 32.71547 -117.17165 36961 ft 362 kts 152°
2026-04-25 23:37 32.67810 -117.13060 36959 ft 369 kts 151°
2026-04-25 23:37 32.63984 -117.08975 36972 ft 388 kts 140°
2026-04-25 23:38 32.60578 -117.03922 36989 ft 395 kts 144°
2026-04-25 23:38 32.58751 -117.01474 36876 ft 394 kts 145°
2026-04-25 23:38 32.56899 -116.99030 37027 ft 399 kts 145°
2026-04-25 23:39 32.53061 -116.94225 36995 ft 395 kts 152°
2026-04-25 23:39 32.48916 -116.89886 36964 ft 401 kts 151°
2026-04-25 23:40 32.44672 -116.85428 36962 ft 407 kts 151°
2026-04-25 23:40 32.40424 -116.80971 36964 ft 412 kts 151°
2026-04-25 23:41 32.36082 -116.76421 36960 ft 417 kts 151°
2026-04-25 23:41 32.31715 -116.71851 36963 ft 421 kts 151°
2026-04-25 23:42 32.27327 -116.67268 36960 ft 425 kts 151°
2026-04-25 23:42 32.22866 -116.62611 36959 ft 428 kts 151°
2026-04-25 23:43 32.18373 -116.57929 36969 ft 431 kts 151°
2026-04-25 23:43 32.13857 -116.53230 36958 ft 435 kts 151°
2026-04-25 23:44 32.09295 -116.48489 36972 ft 437 kts 150°
2026-04-25 23:44 32.04721 -116.43742 36971 ft 440 kts 151°
2026-04-25 23:45 32.00091 -116.38944 36985 ft 442 kts 150°
2026-04-25 23:45 31.95469 -116.34161 36971 ft 445 kts 151°
2026-04-25 23:46 31.90834 -116.29371 36961 ft 445 kts 151°
2026-04-25 23:46 31.86158 -116.24545 36971 ft 442 kts 151°
2026-04-25 23:47 31.81571 -116.19817 36984 ft 436 kts 152°
2026-04-25 23:47 31.77043 -116.15157 36978 ft 431 kts 152°
2026-04-25 23:48 31.72553 -116.10542 36982 ft 426 kts 152°
2026-04-25 23:48 31.68098 -116.05969 36986 ft 422 kts 152°
2026-04-25 23:49 31.63681 -116.01443 36987 ft 418 kts 152°
2026-04-25 23:49 31.59331 -115.96989 36988 ft 415 kts 152°
2026-04-25 23:50 31.54972 -115.92534 36981 ft 412 kts 153°
2026-04-25 23:50 31.50667 -115.88137 36970 ft 409 kts 153°
2026-04-25 23:51 31.46377 -115.83763 36967 ft 407 kts 153°
2026-04-25 23:51 31.42098 -115.79404 36963 ft 405 kts 153°
2026-04-25 23:52 31.37820 -115.75056 36959 ft 408 kts 153°
2026-04-25 23:52 31.33498 -115.70664 36957 ft 413 kts 153°
2026-04-25 23:53 31.29136 -115.66240 36961 ft 417 kts 153°
2026-04-25 23:53 31.24747 -115.61792 36978 ft 421 kts 153°
2026-04-25 23:54 31.20268 -115.57259 36969 ft 424 kts 153°
2026-04-25 23:54 31.15790 -115.52733 36991 ft 427 kts 153°
2026-04-25 23:55 31.11251 -115.48150 37026 ft 430 kts 153°
2026-04-25 23:55 31.06735 -115.43598 37013 ft 433 kts 153°
2026-04-25 23:56 31.02146 -115.38979 36981 ft 436 kts 152°
2026-04-25 23:56 30.97499 -115.34306 36939 ft 440 kts 153°
2026-04-25 23:57 30.92851 -115.29639 36910 ft 441 kts 153°
2026-04-25 23:57 30.88205 -115.24980 36930 ft 441 kts 153°
2026-04-25 23:58 30.83537 -115.20306 36934 ft 442 kts 153°
2026-04-25 23:58 30.78869 -115.15637 36946 ft 443 kts 153°
2026-04-25 23:59 30.74187 -115.10961 36926 ft 445 kts 153°
2026-04-25 23:59 30.69477 -115.06264 36920 ft 446 kts 153°
2026-04-26 00:00 30.64749 -115.01553 36892 ft 448 kts 153°
2026-04-26 00:00 30.59995 -114.96825 36891 ft 449 kts 153°
2026-04-26 00:01 30.55243 -114.92104 36890 ft 450 kts 152°
2026-04-26 00:01 30.50481 -114.87380 36880 ft 451 kts 153°
2026-04-26 00:02 30.45706 -114.82649 36875 ft 452 kts 152°
2026-04-26 00:02 30.40915 -114.77908 36881 ft 452 kts 152°
2026-04-26 00:03 30.36112 -114.73162 36890 ft 453 kts 152°
2026-04-26 00:03 30.31299 -114.68413 36887 ft 454 kts 152°
2026-04-26 00:04 30.26509 -114.63693 36867 ft 455 kts 152°
2026-04-26 00:04 30.21661 -114.58921 36876 ft 455 kts 152°
2026-04-26 00:05 30.16822 -114.54166 36860 ft 457 kts 152°
2026-04-26 00:05 30.11970 -114.49404 36846 ft 458 kts 152°
2026-04-26 00:06 30.07111 -114.44641 36846 ft 458 kts 152°
2026-04-26 00:06 30.02228 -114.39861 36861 ft 458 kts 152°
2026-04-26 00:07 29.97367 -114.35109 36851 ft 459 kts 152°
2026-04-26 00:07 29.92494 -114.30351 36823 ft 458 kts 153°
2026-04-26 00:08 29.87606 -114.25587 36845 ft 457 kts 153°
2026-04-26 00:08 29.82744 -114.20851 36832 ft 456 kts 153°
2026-04-26 00:09 29.77905 -114.16146 36850 ft 454 kts 153°
2026-04-26 00:09 29.73091 -114.11471 36852 ft 452 kts 153°
2026-04-26 00:10 29.68266 -114.06791 36837 ft 450 kts 153°
2026-04-26 00:10 29.63481 -114.02156 36845 ft 449 kts 153°
2026-04-26 00:11 29.58722 -113.97553 36856 ft 448 kts 153°
2026-04-26 00:11 29.53947 -113.92940 36860 ft 447 kts 153°
2026-04-26 00:12 29.49184 -113.88344 36871 ft 446 kts 153°
2026-04-26 00:12 29.44448 -113.83779 36874 ft 445 kts 153°
2026-04-26 00:13 29.39682 -113.79193 36895 ft 444 kts 152°
2026-04-26 00:13 29.34976 -113.74669 36907 ft 443 kts 152°
2026-04-26 00:14 29.30225 -113.70108 36915 ft 443 kts 152°
2026-04-26 00:14 29.25513 -113.65590 36920 ft 443 kts 152°
2026-04-26 00:15 29.20785 -113.61062 36898 ft 443 kts 152°
2026-04-26 00:15 29.16031 -113.56515 36899 ft 443 kts 152°
2026-04-26 00:16 29.11292 -113.51987 36871 ft 444 kts 152°
2026-04-26 00:16 29.06565 -113.47478 36876 ft 444 kts 152°
2026-04-26 00:17 29.01814 -113.42950 36873 ft 444 kts 152°
2026-04-26 00:17 28.97040 -113.38407 36868 ft 444 kts 152°
2026-04-26 00:18 28.92303 -113.33903 36864 ft 444 kts 152°
2026-04-26 00:18 28.87534 -113.29376 36870 ft 443 kts 152°
2026-04-26 00:19 28.82775 -113.24863 36889 ft 442 kts 152°
2026-04-26 00:19 28.78063 -113.20402 36888 ft 441 kts 152°
2026-04-26 00:20 28.73318 -113.15913 36878 ft 441 kts 152°
2026-04-26 00:20 28.68580 -113.11437 36883 ft 441 kts 152°
2026-04-26 00:21 28.63865 -113.06988 36854 ft 441 kts 152°
2026-04-26 00:21 28.59159 -113.02553 36867 ft 441 kts 152°
2026-04-26 00:22 28.54391 -112.98064 36872 ft 440 kts 152°
2026-04-26 00:22 28.49665 -112.93621 36866 ft 441 kts 152°
2026-04-26 00:23 28.44933 -112.89178 36871 ft 440 kts 152°
2026-04-26 00:23 28.40197 -112.84736 36873 ft 440 kts 152°
2026-04-26 00:24 28.35461 -112.80299 36875 ft 441 kts 151°
2026-04-26 00:24 28.30732 -112.75875 36873 ft 441 kts 151°
2026-04-26 00:25 28.25985 -112.71437 36873 ft 441 kts 151°
2026-04-26 00:25 28.21233 -112.67001 36873 ft 441 kts 151°
2026-04-26 00:26 28.16487 -112.62576 36864 ft 442 kts 151°
2026-04-26 00:26 28.11740 -112.58157 36867 ft 442 kts 151°
2026-04-26 00:27 28.06961 -112.53712 36871 ft 442 kts 151°
2026-04-26 00:27 28.02201 -112.49289 36864 ft 443 kts 151°
2026-04-26 00:28 27.97440 -112.44872 36863 ft 443 kts 150°
2026-04-26 00:28 27.92646 -112.40427 36866 ft 444 kts 150°
2026-04-26 00:29 27.87870 -112.36007 36877 ft 445 kts 150°
2026-04-26 00:29 27.83037 -112.31538 36857 ft 447 kts 151°
2026-04-26 00:30 27.78189 -112.27061 36853 ft 447 kts 151°
2026-04-26 00:30 27.73398 -112.22640 36852 ft 447 kts 151°
2026-04-26 00:31 27.68556 -112.18179 36845 ft 447 kts 151°
2026-04-26 00:31 27.63731 -112.13739 36848 ft 447 kts 150°
2026-04-26 00:32 27.58889 -112.09288 36840 ft 447 kts 150°
2026-04-26 00:32 27.51675 -112.02666 36844 ft 448 kts 150°
2026-04-26 00:33 27.46809 -111.98207 36845 ft 448 kts 150°
2026-04-26 00:33 27.41972 -111.93778 36842 ft 448 kts 150°
2026-04-26 00:34 27.37137 -111.89358 36840 ft 449 kts 150°
2026-04-26 00:34 27.32268 -111.84911 36844 ft 449 kts 150°
2026-04-26 00:35 27.27401 -111.80471 36840 ft 449 kts 150°
2026-04-26 00:35 27.22538 -111.76040 36841 ft 450 kts 150°
2026-04-26 00:36 27.17660 -111.71600 36846 ft 450 kts 150°
2026-04-26 00:36 27.12795 -111.67178 36843 ft 451 kts 150°
2026-04-26 00:37 27.07910 -111.62742 36845 ft 451 kts 150°
2026-04-26 00:37 27.03023 -111.58310 36845 ft 452 kts 149°
2026-04-26 00:38 26.98100 -111.53849 36848 ft 452 kts 149°
2026-04-26 00:38 26.93181 -111.49398 36847 ft 453 kts 150°
2026-04-26 00:39 26.88278 -111.44967 36854 ft 453 kts 149°
2026-04-26 00:39 26.83345 -111.40513 36857 ft 454 kts 149°
2026-04-26 00:40 26.78413 -111.36066 36855 ft 455 kts 149°
2026-04-26 00:40 26.73478 -111.31622 36843 ft 455 kts 150°
2026-04-26 00:41 26.68550 -111.27187 36844 ft 454 kts 150°
2026-04-26 00:41 26.63590 -111.22729 36842 ft 454 kts 150°
2026-04-26 00:42 26.58677 -111.18320 36845 ft 454 kts 150°
2026-04-26 00:42 26.53730 -111.13885 36847 ft 454 kts 150°
2026-04-26 00:43 26.48819 -111.09486 36842 ft 454 kts 150°
2026-04-26 00:43 26.43906 -111.05091 36845 ft 454 kts 150°
2026-04-26 00:44 26.38956 -111.00668 36844 ft 454 kts 150°
2026-04-26 00:44 26.34020 -110.96262 36844 ft 454 kts 150°
2026-04-26 00:45 26.29885 -110.92575 36841 ft 454 kts 150°
2026-04-26 00:45 26.24121 -110.87442 36842 ft 455 kts 150°
2026-04-26 00:46 26.19172 -110.83039 36843 ft 455 kts 150°
2026-04-26 00:46 26.14210 -110.78630 36846 ft 455 kts 150°
2026-04-26 00:47 26.09264 -110.74240 36844 ft 455 kts 150°
2026-04-26 00:47 26.04298 -110.69838 36844 ft 456 kts 149°
2026-04-26 00:48 25.99324 -110.65433 36846 ft 456 kts 150°
2026-04-26 00:48 25.94352 -110.61034 36849 ft 457 kts 149°
2026-04-26 00:49 25.89358 -110.56622 36848 ft 457 kts 149°
2026-04-26 00:49 25.84354 -110.52206 36854 ft 458 kts 149°
2026-04-26 00:50 25.79380 -110.47820 36855 ft 458 kts 149°
2026-04-26 00:50 25.74370 -110.43407 36857 ft 459 kts 149°
2026-04-26 00:51 25.69367 -110.39007 36857 ft 460 kts 149°
2026-04-26 00:51 25.64345 -110.34594 36859 ft 460 kts 150°
2026-04-26 00:52 25.59307 -110.30172 36846 ft 460 kts 150°
2026-04-26 00:52 25.54287 -110.25770 36849 ft 459 kts 150°
2026-04-26 00:53 25.49273 -110.21379 36848 ft 459 kts 150°
2026-04-26 00:53 25.44255 -110.16989 36845 ft 458 kts 150°
2026-04-26 00:54 25.39232 -110.12599 36852 ft 458 kts 150°
2026-04-26 00:54 25.34230 -110.08232 36855 ft 458 kts 150°
2026-04-26 00:55 25.29239 -110.03880 36856 ft 458 kts 150°
2026-04-26 00:55 25.24181 -109.99474 36858 ft 458 kts 150°
2026-04-26 00:56 25.19166 -109.95111 36860 ft 458 kts 150°
2026-04-26 00:56 25.14181 -109.90778 36863 ft 458 kts 150°
2026-04-26 00:57 25.09149 -109.86409 36860 ft 459 kts 150°
2026-04-26 00:57 25.04095 -109.82026 36863 ft 459 kts 150°
2026-04-26 00:58 24.99067 -109.77670 36870 ft 460 kts 150°
2026-04-26 00:58 24.94015 -109.73297 36873 ft 460 kts 150°
2026-04-26 00:59 24.88972 -109.68938 36872 ft 461 kts 150°
2026-04-26 00:59 24.83930 -109.64584 36875 ft 461 kts 150°
2026-04-26 01:00 24.78862 -109.60210 36874 ft 462 kts 150°
2026-04-26 01:00 24.73785 -109.55836 36875 ft 462 kts 150°
2026-04-26 01:01 24.68714 -109.51470 36878 ft 463 kts 149°
2026-04-26 01:01 24.63620 -109.47090 36879 ft 464 kts 150°
2026-04-26 01:02 24.58539 -109.42726 36879 ft 464 kts 149°
2026-04-26 01:02 24.53411 -109.38326 36880 ft 465 kts 149°
2026-04-26 01:03 24.48325 -109.33966 36868 ft 465 kts 150°
2026-04-26 01:03 24.43283 -109.29648 36863 ft 464 kts 150°
2026-04-26 01:04 24.38154 -109.25261 36862 ft 464 kts 150°
2026-04-26 01:04 24.33049 -109.20898 36865 ft 463 kts 150°
2026-04-26 01:05 24.27962 -109.16557 36849 ft 463 kts 150°
2026-04-26 01:05 24.25414 -109.14383 36292 ft 460 kts 150°
2026-04-26 01:05 24.22889 -109.12228 35724 ft 451 kts 150°
2026-04-26 01:06 24.20434 -109.10137 35152 ft 443 kts 150°
2026-04-26 01:06 24.17944 -109.08174 34563 ft 426 kts 159°
2026-04-26 01:06 24.15257 -109.07123 34020 ft 396 kts 180°
2026-04-26 01:06 24.12619 -109.07141 33475 ft 369 kts 198°
2026-04-26 01:07 24.10107 -109.07600 32938 ft 358 kts 202°
2026-04-26 01:07 24.07872 -109.08570 32357 ft 331 kts 214°
2026-04-26 01:07 24.05924 -109.09719 31828 ft 310 kts 217°
2026-04-26 01:07 24.04113 -109.10888 31288 ft 293 kts 218°
2026-04-26 01:08 24.02429 -109.12017 30754 ft 279 kts 218°
2026-04-26 01:08 24.00796 -109.13129 30213 ft 267 kts 219°
2026-04-26 01:08 23.99264 -109.14180 29688 ft 258 kts 219°
2026-04-26 01:08 23.97768 -109.15209 29154 ft 249 kts 219°
2026-04-26 01:09 23.96302 -109.16219 28622 ft 242 kts 219°
2026-04-26 01:09 23.94885 -109.17196 28100 ft 236 kts 219°
2026-04-26 01:09 23.93514 -109.18141 27591 ft 232 kts 219°
2026-04-26 01:09 23.92142 -109.19088 27121 ft 234 kts 219°
2026-04-26 01:10 23.90768 -109.20036 26618 ft 237 kts 218°
2026-04-26 01:10 23.89360 -109.21006 26116 ft 240 kts 218°
2026-04-26 01:10 23.87935 -109.21988 25617 ft 243 kts 218°
2026-04-26 01:10 23.86485 -109.22987 25118 ft 246 kts 218°
2026-04-26 01:11 23.85045 -109.23978 24623 ft 249 kts 217°
2026-04-26 01:11 23.83564 -109.24997 24124 ft 251 kts 217°
2026-04-26 01:11 23.82075 -109.26021 23622 ft 253 kts 217°
2026-04-26 01:11 23.80583 -109.27047 23124 ft 255 kts 217°
2026-04-26 01:12 23.79063 -109.28092 22622 ft 257 kts 216°
2026-04-26 01:12 23.77530 -109.29146 22128 ft 259 kts 216°
2026-04-26 01:12 23.75999 -109.30197 21636 ft 261 kts 216°
2026-04-26 01:12 23.74470 -109.31248 21150 ft 262 kts 216°
2026-04-26 01:13 23.72909 -109.32320 20666 ft 264 kts 216°
2026-04-26 01:13 23.71334 -109.33401 20171 ft 265 kts 216°
2026-04-26 01:13 23.69746 -109.34492 19667 ft 266 kts 215°
2026-04-26 01:13 23.68154 -109.35583 19171 ft 267 kts 215°
2026-04-26 01:14 23.66586 -109.36659 18701 ft 268 kts 215°
2026-04-26 01:14 23.65005 -109.37744 18216 ft 269 kts 214°
2026-04-26 01:14 23.63421 -109.38829 17733 ft 270 kts 214°
2026-04-26 01:14 23.61812 -109.39932 17249 ft 271 kts 214°
2026-04-26 01:15 23.60225 -109.41019 16773 ft 272 kts 214°
2026-04-26 01:15 23.58604 -109.42130 16314 ft 279 kts 214°
2026-04-26 01:15 23.56960 -109.43255 16226 ft 281 kts 214°
2026-04-26 01:15 23.55262 -109.44418 15970 ft 288 kts 214°
2026-04-26 01:16 23.53563 -109.45579 15968 ft 287 kts 214°
2026-04-26 01:16 23.51851 -109.46751 15971 ft 286 kts 214°
2026-04-26 01:16 23.50143 -109.47870 15962 ft 287 kts 206°
2026-04-26 01:16 23.48203 -109.48473 15982 ft 288 kts 195°
2026-04-26 01:17 23.46256 -109.48964 15974 ft 288 kts 195°
2026-04-26 01:17 23.44258 -109.49468 15596 ft 299 kts 195°
2026-04-26 01:17 23.42182 -109.49992 15132 ft 302 kts 195°
2026-04-26 01:17 23.40153 -109.50503 14646 ft 298 kts 195°
2026-04-26 01:18 23.38142 -109.51009 14163 ft 295 kts 195°
2026-04-26 01:18 23.36128 -109.51516 13682 ft 292 kts 195°
2026-04-26 01:18 23.34149 -109.52013 13215 ft 290 kts 195°
2026-04-26 01:18 23.32212 -109.52500 13000 ft 282 kts 195°
2026-04-26 01:19 23.30295 -109.52982 12989 ft 278 kts 195°
2026-04-26 01:19 23.28426 -109.53451 12992 ft 274 kts 195°
2026-04-26 01:19 23.26578 -109.53916 12990 ft 270 kts 195°
2026-04-26 01:19 23.24744 -109.54378 13004 ft 267 kts 195°
2026-04-26 01:20 23.22941 -109.54831 12984 ft 265 kts 195°
2026-04-26 01:20 23.21141 -109.55283 12987 ft 261 kts 195°
2026-04-26 01:20 23.19358 -109.55730 12983 ft 258 kts 195°
2026-04-26 01:20 23.17616 -109.56167 12979 ft 257 kts 195°
2026-04-26 01:21 23.15821 -109.56618 12502 ft 270 kts 195°
2026-04-26 01:21 23.13973 -109.57081 12051 ft 276 kts 195°
2026-04-26 01:21 23.12077 -109.57555 11595 ft 278 kts 195°
2026-04-26 01:21 23.10204 -109.58025 11202 ft 276 kts 195°
2026-04-26 01:22 23.08344 -109.58489 10984 ft 266 kts 195°
2026-04-26 01:22 23.06545 -109.58939 10615 ft 263 kts 195°
2026-04-26 01:22 23.04771 -109.59384 10295 ft 259 kts 195°
2026-04-26 01:22 23.03015 -109.59823 10043 ft 254 kts 195°
2026-04-26 01:23 23.01284 -109.60255 9810 ft 249 kts 195°
2026-04-26 01:23 22.99622 -109.60671 9564 ft 244 kts 195°
2026-04-26 01:23 22.98005 -109.61173 9270 ft 238 kts 210°
2026-04-26 01:23 22.96621 -109.62154 9043 ft 231 kts 217°
2026-04-26 01:24 22.95325 -109.63112 8876 ft 219 kts 217°
2026-04-26 01:24 22.94081 -109.64037 8659 ft 212 kts 217°
2026-04-26 01:24 22.92872 -109.64934 8419 ft 206 kts 217°
2026-04-26 01:24 22.91691 -109.65811 8165 ft 201 kts 217°
2026-04-26 01:25 22.90535 -109.66668 7915 ft 197 kts 216°
2026-04-26 01:25 22.89411 -109.67502 7663 ft 193 kts 217°
2026-04-26 01:25 22.88303 -109.68324 7407 ft 190 kts 216°
2026-04-26 01:25 22.87217 -109.69130 7179 ft 188 kts 216°
2026-04-26 01:26 22.86150 -109.69921 6964 ft 186 kts 217°
2026-04-26 01:26 22.85075 -109.70718 6715 ft 185 kts 217°
2026-04-26 01:26 22.84019 -109.71501 6456 ft 184 kts 216°
2026-04-26 01:26 22.82968 -109.72330 5995 ft 190 kts 229°
2026-04-26 01:27 22.82454 -109.73599 5562 ft 182 kts 274°
2026-04-26 01:27 22.82853 -109.74834 5148 ft 175 kts 308°
2026-04-26 01:27 22.83556 -109.75915 4721 ft 175 kts 306°
2026-04-26 01:27 22.84229 -109.76974 4299 ft 170 kts 307°
2026-04-26 01:28 22.84893 -109.78016 3846 ft 168 kts 306°
2026-04-26 01:28 22.85562 -109.79068 3417 ft 172 kts 307°
2026-04-26 01:28 22.86248 -109.80147 2967 ft 176 kts 306°
2026-04-26 01:28 22.86894 -109.81170 3006 ft 147 kts 306°
2026-04-26 01:29 22.87426 -109.82031 3127 ft 133 kts 306°
2026-04-26 01:29 22.87952 -109.82890 3275 ft 140 kts 307°
2026-04-26 01:29 22.88522 -109.83764 3025 ft 137 kts 308°
2026-04-26 01:29 22.89046 -109.84570 2760 ft 127 kts 307°
2026-04-26 01:30 22.89550 -109.85352 2517 ft 128 kts 307°
2026-04-26 01:30 22.90061 -109.86142 2286 ft 125 kts 309°
2026-04-26 01:30 22.90572 -109.86925 2151 ft 127 kts 306°
2026-04-26 01:30 22.91050 -109.87743 2106 ft 129 kts 303°
2026-04-26 01:31 22.91550 -109.88570 1883 ft 131 kts 307°
2026-04-26 01:31 22.92105 -109.89330 1662 ft 129 kts 311°
2026-04-26 01:31 22.92686 -109.90128 1445 ft 133 kts 310°
2026-04-26 01:31 22.93240 -109.90887 1127 ft 124 kts 310°
2026-04-26 01:32 22.93696 -109.91653 861 ft 123 kts 299°
2026-04-26 01:32 22.94098 -109.92448 748 ft 124 kts 300°
2026-04-26 01:32 22.94340 -109.92899 652 ft 119 kts 301°
2026-04-26 01:32 22.94686 -109.93554 662 ft 69 kts 300°
2026-04-26 01:33 22.94822 -109.93816 679 ft 19 kts 299°